This is the latest recevied weather packets stored in our database for station/object ED2YAA-10. If no packets are shown the sender has not sent any weather packets the latest 10 day(s).
| Time | Temp. | Humidity | Pressure | Rain* | Wind** | Luminosity | Snow |
|---|---|---|---|---|---|---|---|
| 1777577197 | 28.89° C | 29% | 931.6 hPa | - | - | - | - |
| 1777576298 | 28.89° C | 29% | 931.4 hPa | - | - | - | - |
| 1777575421 | 29.44° C | 28% | 931.4 hPa | - | - | - | - |
| 1777574522 | 30° C | 28% | 931.3 hPa | - | - | - | - |
| 1777573621 | 30.56° C | 27% | 931.3 hPa | - | - | - | - |
| 1777572717 | 31.11° C | 27% | 931.1 hPa | - | - | - | - |
| 1777571821 | 31.11° C | 26% | 931.1 hPa | - | - | - | - |
| 1777570917 | 31.11° C | 27% | 930.9 hPa | - | - | - | - |
| 1777570017 | 31.67° C | 26% | 930.8 hPa | - | - | - | - |
| 1777569117 | 31.67° C | 27% | 930.7 hPa | - | - | - | - |
| 1777568217 | 32.22° C | 26% | 930.9 hPa | - | - | - | - |
| 1777567316 | 32.22° C | 26% | 930.8 hPa | - | - | - | - |
| 1777566416 | 32.22° C | 26% | 930.7 hPa | - | - | - | - |
| 1777565516 | 32.22° C | 26% | 930.4 hPa | - | - | - | - |
| 1777564616 | 32.22° C | 26% | 930.2 hPa | - | - | - | - |
| 1777563716 | 32.78° C | 25% | 930.1 hPa | - | - | - | - |
| 1777562827 | 32.78° C | 25% | 930.1 hPa | - | - | - | - |
| 1777561916 | 33.33° C | 25% | 930.2 hPa | - | - | - | - |
| 1777561016 | 33.89° C | 24% | 930.1 hPa | - | - | - | - |
| 1777560116 | 34.44° C | 25% | 930.1 hPa | - | - | - | - |
| 1777559216 | 35° C | 25% | 930.1 hPa | - | - | - | - |
| 1777558316 | 34.44° C | 25% | 930.2 hPa | - | - | - | - |
| 1777557415 | 34.44° C | 25% | 930 hPa | - | - | - | - |
| 1777556515 | 35° C | 25% | 930.1 hPa | - | - | - | - |
| 1777555615 | 38.89° C | 21% | 930 hPa | - | - | - | - |
* Rain since midnight (hover to see other rain measurements)
** Current wind speed in m/s (hover to see current wind gust speed)